When you browse on this site, cookies collect data to enhance your experience and personalize the content and advertising you see.
Visit our Privacy Policy to learn more. By continuing to use the site, you agree to this use of cookies and data.
EN

Hourly Weather Pskov

Today, 4 July, Saturday

Time Temperature Precipitation Wind Pressure Humidity
00:00 +14°C° 0 mm 0 mps 754 mmHg 77%
01:00 +14°C° 0 mm 0 mps 754 mmHg 76%
02:00 +14°C° 0 mm 0 mps 754 mmHg 77%
03:00 +15°C° 0 mm 1 mps 754 mmHg 79%
04:00 +15°C° 0 mm 1 mps 754 mmHg 82%
05:00 +15°C° 0 mm 2 mps 754 mmHg 85%
06:00 +16°C° 0 mm 2 mps 754 mmHg 79%
07:00 +18°C° 0 mm 2 mps 754 mmHg 74%
08:00 +20°C° 0 mm 2 mps 754 mmHg 69%
09:00 +21°C° 0 mm 3 mps 754 mmHg 64%
10:00 +21°C° 0 mm 3 mps 754 mmHg 59%
11:00 +22°C° 0 mm 4 mps 754 mmHg 53%
12:00 +23°C° 0 mm 4 mps 754 mmHg 51%
13:00 +23°C° 0 mm 4 mps 753 mmHg 49%
14:00 +25°C° 0 mm 5 mps 753 mmHg 46%
15:00 +23°C° 0 mm 4 mps 753 mmHg 50%
16:00 +23°C° 0 mm 4 mps 753 mmHg 54%
17:00 +22°C° 0 mm 3 mps 753 mmHg 58%
18:00 +21°C° 0 mm 3 mps 753 mmHg 63%
19:00 +20°C° 0 mm 2 mps 753 mmHg 68%
20:00 +19°C° 0 mm 2 mps 753 mmHg 73%
21:00 +18°C° 0 mm 2 mps 753 mmHg 75%
22:00 +18°C° 0 mm 2 mps 753 mmHg 77%
23:00 +18°C° 0 mm 2 mps 753 mmHg 79%

Tomorrow, 5 July, Sunday

Time Temperature Precipitation Wind Pressure Humidity
00:00 +18°C° 0 mm 3 mps 752 mmHg 78%
01:00 +18°C° 0 mm 3 mps 752 mmHg 77%
02:00 +18°C° 0 mm 3 mps 752 mmHg 77%
03:00 +18°C° 0 mm 4 mps 752 mmHg 77%
04:00 +18°C° 0 mm 4 mps 751 mmHg 78%
05:00 +18°C° 0 mm 4 mps 751 mmHg 79%
06:00 +18°C° 0.4 mm 4 mps 751 mmHg 84%
07:00 +16°C° 0.4 mm 5 mps 750 mmHg 89%
08:00 +16°C° 0.4 mm 5 mps 750 mmHg 95%
09:00 +16°C° 0.4 mm 5 mps 750 mmHg 95%
10:00 +16°C° 0.4 mm 5 mps 750 mmHg 95%
11:00 +16°C° 0.4 mm 5 mps 750 mmHg 95%
12:00 +17°C° 0.1 mm 5 mps 750 mmHg 93%
13:00 +17°C° 0.1 mm 5 mps 750 mmHg 90%
14:00 +19°C° 0.1 mm 5 mps 750 mmHg 88%
15:00 +20°C° 0.1 mm 5 mps 749 mmHg 82%
16:00 +21°C° 0.1 mm 5 mps 749 mmHg 76%
17:00 +22°C° 0.1 mm 5 mps 749 mmHg 71%
18:00 +21°C° 0.2 mm 4 mps 749 mmHg 77%
19:00 +21°C° 0.2 mm 4 mps 748 mmHg 84%
20:00 +20°C° 0.2 mm 4 mps 748 mmHg 91%
21:00 +19°C° 0.1 mm 4 mps 748 mmHg 92%
22:00 +19°C° 0.1 mm 4 mps 748 mmHg 93%
23:00 +19°C° 0.1 mm 5 mps 747 mmHg 94%

Day after tomorrow, 6 July, Monday

Time Temperature Precipitation Wind Pressure Humidity
00:00 +19°C° 0.1 mm 5 mps 747 mmHg 94%
01:00 +19°C° 0.1 mm 5 mps 747 mmHg 94%
02:00 +19°C° 0.1 mm 5 mps 747 mmHg 94%
03:00 +19°C° 0.1 mm 5 mps 747 mmHg 94%
04:00 +19°C° 0.1 mm 5 mps 747 mmHg 93%
05:00 +17°C° 0.1 mm 5 mps 747 mmHg 93%
06:00 +19°C° 0 mm 5 mps 747 mmHg 91%
07:00 +19°C° 0 mm 5 mps 747 mmHg 89%
08:00 +19°C° 0 mm 5 mps 747 mmHg 87%
09:00 +20°C° 0.1 mm 5 mps 747 mmHg 82%
10:00 +20°C° 0.1 mm 5 mps 747 mmHg 76%
11:00 +21°C° 0.1 mm 5 mps 747 mmHg 71%
12:00 +22°C° 0 mm 5 mps 747 mmHg 66%
13:00 +23°C° 0 mm 5 mps 747 mmHg 61%
14:00 +25°C° 0 mm 5 mps 747 mmHg 56%
15:00 +23°C° 0.1 mm 5 mps 747 mmHg 60%
16:00 +22°C° 0.1 mm 5 mps 747 mmHg 65%
17:00 +22°C° 0.1 mm 4 mps 747 mmHg 69%
18:00 +21°C° 0.1 mm 4 mps 748 mmHg 74%
19:00 +20°C° 0.1 mm 3 mps 748 mmHg 78%
20:00 +19°C° 0.1 mm 3 mps 748 mmHg 83%
21:00 +18°C° 0 mm 3 mps 748 mmHg 85%
22:00 +17°C° 0 mm 2 mps 748 mmHg 87%
23:00 +16°C° 0 mm 2 mps 748 mmHg 89%

7 July, Tuesday

Time Temperature Precipitation Wind Pressure Humidity
00:00 +15°C° 0 mm 2 mps 749 mmHg 89%
01:00 +13°C° 0 mm 3 mps 749 mmHg 88%
02:00 +12°C° 0 mm 3 mps 749 mmHg 88%
03:00 +12°C° 0 mm 3 mps 749 mmHg 87%
04:00 +12°C° 0 mm 3 mps 750 mmHg 87%
05:00 +12°C° 0 mm 3 mps 750 mmHg 87%
06:00 +13°C° 0 mm 3 mps 750 mmHg 79%
07:00 +16°C° 0 mm 3 mps 750 mmHg 72%
08:00 +18°C° 0 mm 3 mps 750 mmHg 65%
09:00 +19°C° 0 mm 4 mps 750 mmHg 61%
10:00 +20°C° 0 mm 4 mps 750 mmHg 57%
11:00 +21°C° 0 mm 4 mps 750 mmHg 53%
12:00 +21°C° 0 mm 4 mps 750 mmHg 52%
13:00 +22°C° 0 mm 4 mps 750 mmHg 50%
14:00 +22°C° 0 mm 4 mps 750 mmHg 48%
15:00 +22°C° 0 mm 4 mps 750 mmHg 49%
16:00 +22°C° 0 mm 3 mps 750 mmHg 50%
17:00 +22°C° 0 mm 3 mps 750 mmHg 52%
18:00 +20°C° 0.1 mm 3 mps 750 mmHg 61%
19:00 +19°C° 0.1 mm 2 mps 750 mmHg 71%
20:00 +17°C° 0.1 mm 2 mps 751 mmHg 80%
21:00 +16°C° 0 mm 2 mps 751 mmHg 80%
22:00 +15°C° 0 mm 2 mps 751 mmHg 80%
23:00 +15°C° 0 mm 2 mps 751 mmHg 80%

8 July, Wednesday

Time Temperature Precipitation Wind Pressure Humidity
00:00 +14°C° 0 mm 2 mps 751 mmHg 80%
01:00 +14°C° 0 mm 1 mps 751 mmHg 79%
02:00 +13°C° 0 mm 1 mps 751 mmHg 78%
03:00 +13°C° 0 mm 1 mps 751 mmHg 79%
04:00 +13°C° 0 mm 1 mps 751 mmHg 80%
05:00 +13°C° 0 mm 1 mps 751 mmHg 81%
06:00 +14°C° 0 mm 1 mps 751 mmHg 78%
07:00 +15°C° 0 mm 1 mps 750 mmHg 74%
08:00 +16°C° 0 mm 1 mps 750 mmHg 70%
09:00 +19°C° 0 mm 1 mps 750 mmHg 65%
10:00 +20°C° 0 mm 1 mps 750 mmHg 61%
11:00 +21°C° 0 mm 1 mps 750 mmHg 56%
12:00 +21°C° 0.2 mm 1 mps 750 mmHg 59%
13:00 +20°C° 0.2 mm 1 mps 750 mmHg 63%
14:00 +20°C° 0.2 mm 1 mps 749 mmHg 66%
15:00 +19°C° 0.4 mm 2 mps 749 mmHg 69%
16:00 +19°C° 0.4 mm 2 mps 749 mmHg 73%
17:00 +19°C° 0.4 mm 2 mps 749 mmHg 76%
18:00 +17°C° 0.4 mm 2 mps 749 mmHg 81%
19:00 +16°C° 0.4 mm 2 mps 749 mmHg 85%
20:00 +14°C° 0.4 mm 3 mps 749 mmHg 90%
21:00 +14°C° 0.2 mm 2 mps 749 mmHg 91%
22:00 +13°C° 0.2 mm 2 mps 750 mmHg 93%
23:00 +13°C° 0.2 mm 2 mps 750 mmHg 94%

9 July, Thursday

Time Temperature Precipitation Wind Pressure Humidity
00:00 +12°C° 0.1 mm 2 mps 750 mmHg 95%
01:00 +11°C° 0.1 mm 3 mps 750 mmHg 95%
02:00 +11°C° 0.1 mm 3 mps 750 mmHg 95%
03:00 +11°C° 0.1 mm 3 mps 750 mmHg 95%
04:00 +10°C° 0.1 mm 3 mps 750 mmHg 95%
05:00 +10°C° 0.1 mm 3 mps 750 mmHg 94%
06:00 +12°C° 0 mm 3 mps 751 mmHg 89%
07:00 +13°C° 0 mm 3 mps 751 mmHg 84%
08:00 +14°C° 0 mm 3 mps 751 mmHg 79%
09:00 +17°C° 0 mm 3 mps 751 mmHg 71%
10:00 +18°C° 0 mm 3 mps 751 mmHg 64%
11:00 +20°C° 0 mm 4 mps 751 mmHg 56%
12:00 +21°C° 0 mm 4 mps 751 mmHg 53%
13:00 +21°C° 0 mm 4 mps 751 mmHg 51%
14:00 +22°C° 0 mm 4 mps 751 mmHg 48%
15:00 +22°C° 0 mm 4 mps 751 mmHg 50%
16:00 +22°C° 0 mm 5 mps 751 mmHg 51%
17:00 +22°C° 0 mm 5 mps 751 mmHg 53%
18:00 +20°C° 0 mm 4 mps 751 mmHg 61%
19:00 +19°C° 0 mm 4 mps 751 mmHg 69%
20:00 +18°C° 0 mm 4 mps 751 mmHg 76%
21:00 +17°C° 0 mm 4 mps 751 mmHg 81%
22:00 +15°C° 0 mm 4 mps 751 mmHg 85%
23:00 +14°C° 0 mm 4 mps 751 mmHg 89%
Show more